When you browse on this site, cookies collect data to enhance your experience and personalize the content and advertising you see.
Visit our Privacy Policy to learn more. By continuing to use the site, you agree to this use of cookies and data.
  • în România
  • Lista ţărilor
  • Pe 7 zile
  • Temperatura apei
  • Hartă satelitară
  • Meteo pe hartă
  • Widget-uri
  • user-avatar
    Intrare

    Meteo pe oră la Podvyaze

    Astăzi, 18 Februarie, Luni

    Timp Temperatura Precipitaţii Vânt Presiune Umiditate
    00:00 -5°C° 0 mm 4 m/s 738 mmHg 80%
    01:00 -7°C° 0 mm 4 m/s 739 mmHg 81%
    02:00 -6°C° 0 mm 2 m/s 740 mmHg 89%
    03:00 -7°C° 0 mm 3 m/s 740 mmHg 89%
    04:00 -7°C° 0 mm 3 m/s 741 mmHg 90%
    05:00 -7°C° 0 mm 3 m/s 741 mmHg 91%
    06:00 -7°C° 0 mm 3 m/s 742 mmHg 90%
    07:00 -7°C° 0 mm 3 m/s 743 mmHg 89%
    08:00 -7°C° 0 mm 3 m/s 743 mmHg 87%
    09:00 -7°C° 0 mm 3 m/s 744 mmHg 85%
    10:00 -5°C° 0 mm 2 m/s 744 mmHg 82%
    11:00 -4°C° 0 mm 2 m/s 744 mmHg 80%
    12:00 -4°C° 0 mm 2 m/s 744 mmHg 77%
    13:00 -3°C° 0 mm 2 m/s 745 mmHg 74%
    14:00 -3°C° 0 mm 2 m/s 745 mmHg 72%
    15:00 -2°C° 0 mm 1 m/s 745 mmHg 76%
    16:00 -3°C° 0 mm 1 m/s 745 mmHg 81%
    17:00 -4°C° 0 mm 1 m/s 745 mmHg 86%
    18:00 -4°C° 0 mm 1 m/s 745 mmHg 87%
    19:00 -4°C° 0 mm 1 m/s 745 mmHg 88%
    20:00 -6°C° 0 mm 1 m/s 745 mmHg 90%
    21:00 -7°C° 0 mm 2 m/s 744 mmHg 90%
    22:00 -7°C° 0 mm 2 m/s 744 mmHg 89%
    23:00 -7°C° 0 mm 2 m/s 744 mmHg 89%

    Mâine, 19 Februarie, Marţi

    Timp Temperatura Precipitaţii Vânt Presiune Umiditate
    00:00 -8°C° 0 mm 3 m/s 743 mmHg 88%
    01:00 -7°C° 0 mm 3 m/s 743 mmHg 86%
    02:00 -8°C° 0 mm 4 m/s 743 mmHg 85%
    03:00 -8°C° 0 mm 4 m/s 742 mmHg 83%
    04:00 -8°C° 0 mm 4 m/s 741 mmHg 81%
    05:00 -8°C° 0 mm 4 m/s 741 mmHg 78%
    06:00 -8°C° 0 mm 4 m/s 740 mmHg 79%
    07:00 -7°C° 0 mm 5 m/s 740 mmHg 80%
    08:00 -7°C° 0 mm 5 m/s 739 mmHg 80%
    09:00 -6°C° 0 mm 5 m/s 739 mmHg 80%
    10:00 -4°C° 0 mm 5 m/s 739 mmHg 79%
    11:00 -2°C° 0 mm 5 m/s 738 mmHg 78%
    12:00 -2°C° 0 mm 5 m/s 738 mmHg 78%
    13:00 -1°C° 0 mm 5 m/s 737 mmHg 79%
    14:00 -1°C° 0 mm 5 m/s 737 mmHg 79%
    15:00 -1°C° 0 mm 5 m/s 736 mmHg 82%
    16:00 -2°C° 0 mm 5 m/s 735 mmHg 84%
    17:00 -2°C° 0 mm 5 m/s 735 mmHg 87%
    18:00 -2°C° 0 mm 5 m/s 734 mmHg 88%
    19:00 -2°C° 0 mm 5 m/s 734 mmHg 89%
    20:00 -3°C° 0 mm 6 m/s 733 mmHg 89%
    21:00 -2°C° 0 mm 5 m/s 732 mmHg 89%
    22:00 -1°C° 0 mm 5 m/s 732 mmHg 90%
    23:00 -1°C° 0 mm 5 m/s 731 mmHg 90%

    Poimâine, 20 Februarie, Miercuri

    Timp Temperatura Precipitaţii Vânt Presiune Umiditate
    00:00 -1°C° 0.1 mm 5 m/s 730 mmHg 90%
    01:00 -1°C° 0.1 mm 5 m/s 730 mmHg 90%
    02:00 -1°C° 0.1 mm 5 m/s 729 mmHg 91%
    03:00 -1°C° 0.2 mm 5 m/s 729 mmHg 91%
    04:00 -1°C° 0.2 mm 5 m/s 728 mmHg 91%
    05:00 -1°C° 0.2 mm 5 m/s 728 mmHg 91%
    06:00 0°C° 0.1 mm 5 m/s 728 mmHg 91%
    07:00 0°C° 0.1 mm 5 m/s 728 mmHg 92%
    08:00 0°C° 0.1 mm 5 m/s 728 mmHg 92%
    09:00 0°C° 0.1 mm 5 m/s 728 mmHg 91%
    10:00 0°C° 0.1 mm 5 m/s 728 mmHg 89%
    11:00 0°C° 0.1 mm 5 m/s 728 mmHg 87%
    12:00 0°C° 0.1 mm 5 m/s 728 mmHg 85%
    13:00 0°C° 0.1 mm 5 m/s 728 mmHg 82%
    14:00 +1°C° 0.1 mm 5 m/s 728 mmHg 79%
    15:00 0°C° 0.1 mm 5 m/s 728 mmHg 81%
    16:00 0°C° 0.1 mm 5 m/s 728 mmHg 83%
    17:00 -1°C° 0.1 mm 5 m/s 728 mmHg 85%
    18:00 -1°C° 0.3 mm 5 m/s 727 mmHg 85%
    19:00 -1°C° 0.3 mm 5 m/s 727 mmHg 86%
    20:00 -1°C° 0.3 mm 5 m/s 727 mmHg 86%
    21:00 -2°C° 0.4 mm 5 m/s 727 mmHg 82%
    22:00 -4°C° 0.4 mm 5 m/s 727 mmHg 79%
    23:00 -4°C° 0.4 mm 6 m/s 727 mmHg 75%

    21 Februarie, Joi

    Timp Temperatura Precipitaţii Vânt Presiune Umiditate
    00:00 -5°C° 0.1 mm 6 m/s 728 mmHg 77%
    01:00 -5°C° 0.1 mm 6 m/s 728 mmHg 78%
    02:00 -6°C° 0.1 mm 6 m/s 729 mmHg 79%
    03:00 -6°C° 0.1 mm 6 m/s 729 mmHg 78%
    04:00 -8°C° 0.1 mm 6 m/s 729 mmHg 77%
    05:00 -8°C° 0.1 mm 6 m/s 730 mmHg 75%
    06:00 -9°C° 0.1 mm 7 m/s 730 mmHg 74%
    07:00 -9°C° 0.1 mm 7 m/s 730 mmHg 73%
    08:00 -11°C° 0.1 mm 7 m/s 731 mmHg 72%
    09:00 -11°C° 0.1 mm 7 m/s 731 mmHg 72%
    10:00 -9°C° 0.1 mm 7 m/s 732 mmHg 71%
    11:00 -9°C° 0.1 mm 7 m/s 732 mmHg 71%
    12:00 -9°C° 0.1 mm 7 m/s 733 mmHg 70%
    13:00 -9°C° 0.1 mm 7 m/s 734 mmHg 70%
    14:00 -9°C° 0.1 mm 7 m/s 734 mmHg 69%
    15:00 -9°C° 0 mm 7 m/s 735 mmHg 70%
    16:00 -11°C° 0 mm 7 m/s 736 mmHg 71%
    17:00 -10°C° 0 mm 6 m/s 737 mmHg 72%
    18:00 -10°C° 0 mm 6 m/s 738 mmHg 72%
    19:00 -11°C° 0 mm 6 m/s 739 mmHg 72%
    20:00 -11°C° 0 mm 6 m/s 740 mmHg 72%
    21:00 -12°C° 0 mm 6 m/s 741 mmHg 72%
    22:00 -12°C° 0 mm 5 m/s 742 mmHg 72%
    23:00 -12°C° 0 mm 5 m/s 742 mmHg 72%

    22 Februarie, Vineri

    Timp Temperatura Precipitaţii Vânt Presiune Umiditate
    00:00 -12°C° 0 mm 5 m/s 743 mmHg 73%
    01:00 -13°C° 0 mm 5 m/s 744 mmHg 74%
    02:00 -13°C° 0 mm 5 m/s 745 mmHg 74%
    03:00 -14°C° 0 mm 5 m/s 745 mmHg 74%
    04:00 -14°C° 0 mm 5 m/s 746 mmHg 74%
    05:00 -14°C° 0 mm 5 m/s 747 mmHg 73%
    06:00 -14°C° 0 mm 5 m/s 748 mmHg 73%
    07:00 -14°C° 0 mm 5 m/s 748 mmHg 73%
    08:00 -14°C° 0 mm 4 m/s 749 mmHg 72%
    09:00 -12°C° 0 mm 4 m/s 750 mmHg 71%
    10:00 -11°C° 0 mm 4 m/s 751 mmHg 70%
    11:00 -10°C° 0 mm 4 m/s 751 mmHg 69%
    12:00 -10°C° 0 mm 4 m/s 752 mmHg 70%
    13:00 -9°C° 0 mm 4 m/s 752 mmHg 71%
    14:00 -8°C° 0 mm 4 m/s 752 mmHg 72%
    15:00 -9°C° 0 mm 4 m/s 753 mmHg 74%
    16:00 -9°C° 0 mm 4 m/s 753 mmHg 75%
    17:00 -9°C° 0 mm 3 m/s 753 mmHg 77%
    18:00 -9°C° 0 mm 3 m/s 754 mmHg 78%
    19:00 -10°C° 0 mm 3 m/s 754 mmHg 78%
    20:00 -10°C° 0 mm 3 m/s 754 mmHg 79%
    21:00 -10°C° 0 mm 3 m/s 754 mmHg 80%
    22:00 -9°C° 0 mm 2 m/s 754 mmHg 81%
    23:00 -10°C° 0 mm 2 m/s 754 mmHg 82%

    23 Februarie, Sâmbătă

    Timp Temperatura Precipitaţii Vânt Presiune Umiditate
    00:00 -10°C° 0 mm 2 m/s 753 mmHg 82%
    01:00 -10°C° 0 mm 2 m/s 753 mmHg 81%
    02:00 -10°C° 0 mm 2 m/s 753 mmHg 80%
    03:00 -9°C° 0 mm 2 m/s 752 mmHg 76%
    04:00 -9°C° 0 mm 3 m/s 751 mmHg 71%
    05:00 -9°C° 0 mm 3 m/s 751 mmHg 67%
    06:00 -8°C° 0.3 mm 3 m/s 750 mmHg 75%
    07:00 -9°C° 0.3 mm 4 m/s 749 mmHg 83%
    08:00 -9°C° 0.3 mm 4 m/s 748 mmHg 92%
    09:00 -9°C° 1 mm 4 m/s 747 mmHg 92%
    10:00 -8°C° 1 mm 4 m/s 746 mmHg 92%
    11:00 -8°C° 1 mm 4 m/s 745 mmHg 92%
    12:00 -7°C° 0.2 mm 4 m/s 744 mmHg 91%
    13:00 -7°C° 0.2 mm 4 m/s 743 mmHg 91%
    14:00 -5°C° 0.2 mm 3 m/s 742 mmHg 90%
    15:00 -5°C° 0.2 mm 3 m/s 742 mmHg 91%
    16:00 -5°C° 0.2 mm 3 m/s 741 mmHg 93%
    17:00 -5°C° 0.2 mm 3 m/s 741 mmHg 94%
    18:00 -4°C° 0.2 mm 3 m/s 741 mmHg 95%
    19:00 -2°C° 0.2 mm 3 m/s 741 mmHg 95%
    20:00 0°C° 0.2 mm 3 m/s 741 mmHg 96%
    21:00 0°C° 0.1 mm 3 m/s 741 mmHg 96%
    22:00 +1°C° 0.1 mm 2 m/s 742 mmHg 96%
    23:00 +1°C° 0.1 mm 2 m/s 742 mmHg 97%
    Arată mai mult